Theta_e
309 308 309 309 309 309 309 309 310 310 310 311 310 307 306 305 305 300 298 300 296 290 291 294 295 292 293 292 287 291 291 293 290 285 284 283 282 284 281 286 285 283 283 276 280 279 277 292 291 284 288 291 291 292
308 308 308 308 308 309 309 309 309 309 310 310 310 308 307 306 305 303 295 300 301 292 291 295 297 298 298 296 294 291 290 292 293 286 284 283 283 281 281 274 290 281 285 282 282 280 290 292 290 292 293 292 293 294
308 308 308 308 307 307 308 308 309 309 309 310 310 308 307 306 305 304 296 298 296 291 291 292 293 298 300 299 299 290 294 297 294 293 286 283 281 283 275 285 289 291 291 286 282 287 288 291 293 294 295 294 295 297
307 307 307 307 307 307 307 308 308 309 309 309 309 307 307 306 305 304 297 298 295 292 286 289 299 297 302 299 298 298 295 297 293 290 286 283 281 287 288 289 288 285 286 284 283 287 290 293 293 294 295 296 297 298
304 304 304 306 307 307 307 308 308 308 309 309 308 307 306 304 304 303 299 299 299 292 286 288 293 297 299 299 297 297 295 294 289 286 284 283 290 290 286 286 282 286 287 285 284 288 289 290 293 295 294 295 297 296
302 302 304 305 306 307 307 307 308 308 308 309 308 307 305 304 303 297 292 298 300 298 289 285 293 295 297 297 297 295 295 293 291 288 285 285 293 290 287 279 290 291 291 291 286 291 291 293 295 297 295 297 297 296
302 302 302 304 305 306 307 308 308 308 308 308 307 305 304 304 299 294 292 297 300 298 289 286 287 294 297 298 298 297 297 294 292 289 284 285 291 293 289 285 289 290 291 289 291 293 291 293 292 296 297 297 298 297
301 301 302 303 305 306 307 308 308 308 308 307 305 304 304 303 299 295 298 301 301 295 293 285 286 290 299 293 293 298 295 296 295 289 291 289 294 292 286 290 290 289 289 291 293 294 293 295 295 295 296 296 294 295
301 301 301 302 304 305 307 307 308 307 306 304 304 302 298 295 292 294 303 303 301 294 287 287 285 284 297 296 296 297 297 290 294 289 290 291 289 284 289 287 286 289 290 290 292 293 293 292 293 294 294 294 293 293
302 301 301 301 303 305 306 307 307 306 304 303 298 294 290 294 301 302 297 292 291 291 290 286 291 287 292 294 293 292 294 290 287 289 293 289 288 290 290 288 289 293 292 292 289 289 290 291 292 292 292 293 294 293
303 303 303 302 303 305 307 307 305 304 302 296 293 291 298 303 297 293 288 287 287 285 288 289 289 287 295 287 288 291 287 286 283 287 288 285 286 289 290 289 292 292 293 293 293 293 293 293 292 291 291 293 293 293
304 304 303 302 304 306 307 305 304 299 297 296 297 299 298 294 290 287 286 288 286 284 289 288 289 290 290 292 287 288 284 287 280 291 287 285 288 287 289 289 291 289 291 289 291 291 293 294 293 291 292 292 293 293
304 304 304 303 305 306 307 304 302 302 301 298 295 291 290 289 282 282 280 285 286 290 292 291 290 291 290 290 288 287 285 281 292 287 285 286 287 288 288 289 291 291 289 289 290 291 292 293 293 292 291 292 293 293
303 304 304 304 305 306 305 303 303 302 298 291 289 283 284 283 283 284 286 289 294 294 295 293 290 289 289 287 287 284 288 290 283 284 282 282 285 287 288 290 288 287 288 288 289 290 291 291 291 291 292 292 292 291
303 304 304 304 305 306 304 303 303 300 295 290 289 282 283 287 289 290 294 292 294 296 294 292 291 290 288 287 286 284 283 282 283 278 278 285 286 287 287 289 288 287 287 288 288 289 289 289 289 289 291 292 291 292
303 303 303 305 305 305 303 302 299 298 294 291 289 286 287 288 288 289 292 292 295 294 293 291 289 288 288 285 283 283 279 278 276 279 282 285 285 287 287 288 289 289 289 288 288 289 289 289 288 288 290 291 291 291
303 300 304 305 304 303 301 296 295 291 290 289 287 290 289 290 291 292 294 294 296 293 287 288 286 286 289 282 281 280 276 278 281 284 285 285 286 286 288 289 290 290 289 288 288 288 288 288 289 288 287 290 290 291
300 303 305 303 300 298 296 296 293 290 287 289 284 289 292 290 291 294 296 295 291 290 290 287 292 287 282 282 277 281 284 286 286 286 286 287 287 288 290 288 290 288 288 287 287 287 287 287 287 286 287 290 291 290
302 303 302 301 299 294 291 291 293 287 287 289 290 289 290 293 294 296 296 296 296 295 290 288 287 285 283 286 286 285 286 287 286 287 287 288 288 289 289 288 288 287 286 285 285 285 285 286 286 286 287 288 289 289
303 302 301 301 301 293 289 290 294 289 286 288 290 287 288 290 294 296 294 294 291 289 287 286 288 289 288 289 289 288 288 289 288 286 286 286 288 287 286 285 284 284 285 285 285 286 284 285 285 287 287 287 288 288
299 300 301 299 297 296 292 287 287 289 289 288 290 290 291 293 292 293 291 293 288 287 286 289 288 288 289 289 289 288 288 290 288 287 284 283 284 284 285 285 285 284 283 282 282 283 284 283 283 285 285 286 286 287
297 299 296 297 294 294 292 291 288 290 289 291 292 291 290 290 291 291 294 288 288 288 290 289 289 290 288 288 287 287 288 287 285 286 287 286 283 282 282 283 283 282 282 282 282 281 282 283 284 285 284 284 285 285
298 297 294 294 290 288 288 293 289 292 287 289 292 289 290 290 292 294 288 288 289 292 291 291 290 290 290 290 290 288 288 287 285 285 285 284 283 283 283 282 283 282 281 281 282 281 282 284 284 284 284 284 283 282
299 292 289 288 287 284 290 289 291 290 288 289 288 287 289 289 291 288 284 286 289 290 290 289 290 287 286 287 285 284 283 285 284 283 285 284 282 281 282 282 282 282 281 281 281 282 282 283 284 283 282 281 281 280
287 287 287 283 288 286 284 287 286 287 286 289 287 288 288 290 284 284 284 287 287 287 287 287 286 286 284 283 283 284 285 285 284 282 283 284 282 281 281 281 281 281 282 281 280 281 281 282 282 281 281 280 280 279
278 286 285 284 284 286 285 284 284 286 288 288 289 291 291 285 284 284 286 288 287 287 287 288 285 284 282 283 284 283 282 283 285 282 281 282 282 280 279 279 279 280 281 281 281 281 281 281 281 280 279 279 280 278
282 284 287 292 290 289 288 290 289 287 288 288 289 288 286 282 282 285 290 290 289 289 291 290 289 286 284 282 284 284 283 283 284 283 282 282 282 282 281 279 279 279 282 283 282 281 280 280 280 279 278 278 278 277
288 289 285 287 289 290 289 288 288 287 289 293 290 286 284 284 283 289 292 290 290 291 290 290 290 289 287 285 285 284 284 285 285 284 284 283 282 282 283 282 283 283 282 282 281 280 279 279 278 278 277 276 276 277
288 291 290 287 289 289 288 289 289 291 294 293 288 285 286 289 288 287 288 289 291 290 288 287 288 288 286 286 285 285 284 284 282 279 278 277 278 279 281 282 282 282 281 280 280 280 279 278 278 277 277 276 276 276
289 292 287 289 287 287 291 293 291 290 292 292 291 289 287 288 288 289 289 289 288 288 289 288 288 287 285 284 282 281 281 281 281 280 278 276 277 279 280 280 280 279 278 278 277 277 277 277 276 276 275 275 274 274
292 291 289 289 288 289 291 292 292 293 293 291 291 287 284 288 290 291 290 290 290 290 288 287 286 286 284 282 281 279 277 279 280 280 279 279 279 279 280 280 279 278 278 277 276 275 274 273 273 272 272 272 273 272
290 289 288 285 284 290 291 289 288 288 287 287 286 288 287 285 285 288 290 289 288 287 286 287 285 281 282 280 279 279 279 277 277 278 279 278 277 279 280 280 279 279 277 275 274 274 273 271 271 270 270 271 271 271
287 288 288 286 285 285 287 287 286 285 286 285 285 286 285 285 283 286 290 287 287 286 283 282 282 281 280 279 277 277 277 277 276 277 276 276 276 277 278 278 279 277 275 273 271 270 269 267 265 264 264 264 265 266
Wind_Speed
11 10 11 11 11 11 11 10 10 10 10 10 14 14 12 9 6 5 1 3 3 3 9 10 10 8 4 2 2 4 6 2 4 4 2 2 1 2 2 2 1 2 1 2 2 3 5 6 3 3 5 11 18 19
11 11 10 11 12 11 11 10 10 10 9 10 13 14 13 9 7 9 2 2 2 3 6 4 8 12 12 16 5 3 4 5 1 2 1 1 2 2 2 2 3 1 4 3 5 6 1 2 4 7 7 15 17 19
12 11 10 11 11 11 12 11 11 10 9 9 13 14 13 10 10 11 2 3 1 3 5 4 7 9 11 15 13 4 4 2 1 3 3 1 2 3 1 2 2 2 2 2 5 2 5 14 9 7 17 18 23 22
9 10 10 11 12 12 12 12 11 10 9 9 13 13 11 8 8 10 3 2 1 1 4 6 5 7 2 5 12 19 1 5 3 3 1 2 2 2 1 2 3 1 3 2 6 6 14 6 12 17 19 22 21 23
12 13 13 12 12 12 12 12 10 9 8 8 13 12 10 7 6 6 2 3 2 2 4 6 10 7 10 6 8 12 10 5 1 3 2 2 1 1 1 0 2 1 1 1 4 7 6 14 17 22 22 23 22 26
13 14 13 12 12 12 12 11 10 9 8 12 13 13 10 9 10 3 2 1 4 3 3 4 4 4 5 3 10 10 7 3 3 2 2 3 4 2 2 2 2 3 4 2 6 10 13 17 19 19 20 21 22 22
13 14 14 12 12 12 11 11 10 9 10 13 10 11 10 10 3 2 1 2 6 3 2 4 4 4 5 3 3 3 3 2 3 2 1 2 2 0 1 2 3 5 6 7 7 10 10 9 15 21 19 22 23 24
13 13 14 13 12 12 11 10 9 9 12 11 12 9 6 12 3 2 2 8 5 2 2 3 4 4 3 1 3 2 3 2 2 3 2 1 0 1 2 3 5 5 6 5 8 11 14 16 16 18 18 20 24 23
13 14 14 14 13 12 10 8 8 13 15 15 13 14 4 2 1 2 1 9 2 1 2 2 2 2 6 2 3 2 1 2 1 2 1 1 2 3 2 1 4 5 6 9 13 13 13 16 18 18 20 21 21 24
13 13 13 13 14 13 10 8 13 20 19 20 4 2 2 3 5 7 3 2 2 3 3 3 2 3 3 2 4 3 2 2 3 2 3 2 1 3 2 1 4 5 7 9 12 14 17 17 18 19 18 17 19 21
15 15 12 13 14 13 9 11 21 24 12 2 2 2 1 6 1 2 2 3 3 3 3 3 4 2 2 3 3 3 3 3 2 2 2 2 2 3 1 2 4 7 8 8 9 10 12 14 16 16 17 18 18 21
13 13 12 11 12 11 8 23 27 7 4 5 4 3 2 3 2 4 3 3 4 3 4 3 4 5 4 3 3 1 2 2 2 4 2 2 2 3 1 3 6 6 8 8 9 10 12 12 15 14 14 15 17 18
13 13 11 11 10 10 15 27 18 18 10 2 2 3 2 3 4 5 4 3 3 4 3 3 3 4 2 2 1 2 0 2 5 3 2 1 2 1 2 2 4 5 6 7 9 10 12 11 13 13 15 14 16 17
13 12 11 8 9 9 21 24 23 11 4 2 4 4 4 4 5 5 3 1 2 2 3 3 3 4 2 2 2 2 1 3 2 2 2 2 2 0 3 3 4 6 7 8 9 10 11 12 12 12 13 14 14 17
11 10 9 9 10 9 26 25 16 2 2 3 3 4 7 5 3 3 2 2 3 3 2 4 3 2 0 1 1 2 1 2 2 3 3 2 3 1 3 4 4 5 6 6 6 7 11 12 12 12 13 13 14 14
9 6 5 9 10 18 26 15 4 2 1 1 4 3 4 2 1 2 2 5 2 3 2 3 3 2 1 2 2 3 3 4 5 3 3 4 3 2 2 2 3 4 5 5 5 5 7 12 12 11 11 13 13 14
7 3 7 10 20 27 18 5 2 3 3 4 3 3 3 3 3 3 3 3 1 3 3 1 1 2 2 1 1 4 5 4 4 2 2 5 5 2 2 3 4 5 5 6 5 6 6 8 11 11 13 13 12 13
3 3 10 29 19 9 3 2 3 4 5 4 3 2 3 3 2 1 2 3 2 2 2 2 3 1 4 4 3 3 2 1 2 4 4 4 4 4 1 2 5 5 5 6 6 6 6 7 11 9 11 12 11 13
4 10 30 26 10 5 3 2 2 3 5 2 3 2 2 2 3 3 5 4 4 4 3 2 2 3 3 3 3 3 3 3 4 3 2 3 0 3 6 6 6 5 6 5 6 5 5 6 6 7 7 8 9 10
16 26 21 14 5 3 4 2 1 2 3 4 2 2 3 3 2 2 4 3 3 1 1 1 3 3 4 3 3 4 4 4 4 3 2 3 3 6 5 5 3 3 5 5 5 5 4 5 4 7 9 8 8 10
14 9 9 4 2 2 3 4 3 3 3 3 2 3 2 2 2 2 3 2 1 2 2 2 2 0 3 3 3 4 6 6 4 5 5 4 2 4 4 3 4 4 4 4 4 5 7 5 4 5 6 9 9 9
4 8 3 2 1 2 1 3 3 2 2 2 2 3 2 2 3 3 2 1 3 3 3 3 3 4 5 4 2 4 7 7 7 6 8 8 4 4 3 2 4 4 4 3 4 4 4 4 4 7 7 7 8 8
10 4 2 2 2 2 2 1 2 2 2 2 3 2 2 3 3 2 2 2 3 1 3 5 4 4 7 4 7 7 6 9 5 5 5 5 5 4 4 4 3 4 4 4 2 4 4 5 6 7 6 7 8 9
5 3 3 4 4 4 2 4 2 2 2 2 2 2 3 3 3 1 2 2 2 1 2 6 8 5 4 5 4 4 3 5 6 5 5 8 6 4 4 4 4 4 3 2 4 4 5 6 7 7 8 9 8 9
5 4 4 5 4 4 4 5 4 3 3 4 4 1 2 0 3 2 3 3 2 2 4 4 4 4 5 3 3 4 3 4 7 7 2 6 6 4 4 4 4 3 3 5 5 5 5 6 6 7 8 9 10 10
4 6 7 8 4 4 5 5 6 5 4 4 4 3 1 1 3 4 3 4 4 5 6 8 6 4 2 2 5 4 4 2 7 6 2 3 5 6 5 4 3 4 4 3 4 5 5 5 5 7 7 9 10 9
5 5 4 3 3 3 2 1 3 3 4 4 3 4 3 3 3 3 2 2 3 3 5 5 7 6 6 3 4 5 4 3 6 5 5 4 4 4 5 5 4 1 1 5 5 5 5 5 4 5 5 5 7 8
2 3 4 4 2 2 1 3 4 4 3 3 4 4 5 3 3 2 2 3 3 8 7 6 6 7 6 5 6 7 7 8 10 9 7 7 5 4 5 6 6 9 6 5 5 5 5 4 4 4 5 6 6 7
2 2 4 4 1 3 3 3 4 2 1 4 3 2 2 2 3 3 3 2 6 11 10 10 7 8 9 8 7 6 4 7 12 11 10 5 3 3 4 4 4 5 5 6 7 6 7 5 5 5 6 6 6 6
4 2 2 4 3 3 2 1 1 1 3 3 4 3 3 3 4 3 3 4 5 8 9 10 9 8 9 9 7 7 6 4 2 6 7 5 4 1 3 4 5 4 4 5 5 4 6 5 5 5 6 6 6 7
4 3 2 2 2 3 2 5 7 6 4 5 6 5 3 3 2 5 7 4 6 9 10 9 7 7 10 7 7 7 5 5 8 9 8 5 5 5 5 5 4 4 4 5 5 5 5 6 6 6 8 10 12 10
2 2 3 3 2 2 3 4 3 3 3 3 3 3 3 4 3 4 7 5 5 7 7 8 8 5 5 6 6 6 9 5 5 6 8 6 5 5 5 4 4 5 6 6 6 5 7 7 6 8 9 11 11 12
2 2 3 3 2 2 2 3 3 3 3 2 3 2 3 2 3 1 2 5 3 7 8 8 8 8 10 10 9 8 8 7 9 10 10 8 8 7 5 4 5 6 7 6 5 5 7 8 7 7 7 7 9 10
Wind_Direction
267 273 276 276 284 282 278 276 277 271 265 261 216 207 210 234 258 155 240 183 178 240 277 257 259 260 236 199 259 328 332 355 14 51 59 288 80 272 13 343 287 170 231 252 328 275 285 22 345 1 270 307 306 302
272 273 273 278 282 280 279 277 275 269 261 256 218 208 205 220 242 167 228 182 164 219 260 257 252 257 242 245 286 301 291 291 230 76 349 348 320 13 146 283 2 236 179 228 188 230 237 237 209 263 285 299 298 302
276 275 273 275 278 276 274 271 267 264 256 248 217 206 209 217 226 177 180 140 183 272 269 255 243 240 221 229 219 214 257 252 70 157 160 215 260 118 72 292 351 215 35 224 18 294 317 315 305 297 310 303 308 298
275 281 278 279 280 281 273 265 263 258 251 246 201 201 204 218 223 166 163 153 156 289 283 281 313 277 250 185 191 212 310 348 80 73 124 147 189 163 258 261 242 200 23 347 267 301 317 262 315 310 310 304 304 310
281 283 285 286 283 281 274 265 260 252 239 223 188 199 189 198 234 151 147 189 192 200 289 291 303 252 265 216 182 201 222 271 54 24 28 248 240 67 334 6 270 191 315 279 272 319 292 290 306 308 303 309 314 313
278 278 281 284 285 284 279 266 252 244 235 191 186 186 174 194 128 92 272 158 193 168 279 290 303 297 304 175 185 184 191 186 94 163 232 285 269 116 229 222 100 32 344 276 274 303 288 286 294 303 310 314 317 316
278 279 281 282 288 286 279 268 246 223 198 178 184 161 169 174 131 182 219 138 156 124 249 283 291 262 268 185 132 127 157 147 138 181 189 214 286 139 245 251 33 344 315 289 275 302 298 294 306 309 317 316 312 314
273 278 281 283 287 283 284 261 234 203 167 162 141 148 172 142 76 274 220 172 151 216 246 275 278 290 333 237 93 138 131 114 194 228 155 211 32 254 255 72 352 310 320 310 316 308 293 300 310 320 325 321 322 327
267 271 275 279 283 286 281 247 212 157 141 131 124 108 87 82 191 226 271 185 151 276 264 243 275 279 328 293 107 54 86 204 151 212 190 132 218 233 76 355 305 326 337 314 315 314 322 324 323 327 328 326 327 331
255 268 272 272 276 280 266 220 162 137 133 125 92 137 187 205 193 170 170 158 177 193 232 245 261 266 330 295 159 197 202 185 192 209 119 202 258 97 102 249 281 330 334 333 329 333 333 329 327 331 328 326 327 331
261 257 258 266 266 276 242 173 138 130 121 106 143 189 101 143 190 187 215 205 172 237 213 233 215 222 244 236 213 198 182 165 169 197 204 209 221 134 85 312 25 353 333 331 317 319 318 313 329 331 327 331 331 333
260 261 251 254 263 266 209 152 146 135 148 155 133 104 120 196 197 249 217 175 213 243 198 211 197 199 256 213 196 195 171 99 204 148 221 225 125 123 21 348 352 339 340 330 325 315 315 334 336 334 333 334 335 333
261 254 257 241 248 255 177 159 145 123 115 88 113 163 187 159 231 217 217 192 224 196 209 187 213 223 241 221 97 100 74 205 116 172 213 22 120 71 339 345 333 334 324 311 315 319 322 338 339 342 339 342 340 340
260 250 253 241 242 225 167 151 143 141 103 157 160 185 205 185 229 204 214 251 300 307 298 307 233 192 198 111 124 136 153 136 261 213 217 193 195 36 293 325 356 326 331 325 330 331 342 343 341 340 345 344 346 346
251 244 240 242 231 200 159 150 144 90 135 159 199 219 216 236 251 208 145 262 252 262 307 325 278 166 178 113 9 72 195 242 212 224 231 167 156 238 325 335 342 330 327 330 330 346 357 353 351 344 345 349 351 351
244 240 215 192 192 159 143 122 67 68 28 233 218 250 241 261 224 208 201 267 205 239 192 226 253 120 341 151 129 215 128 213 243 199 187 145 203 253 275 288 313 318 334 342 341 345 352 353 353 344 342 358 355 355
216 228 185 172 147 135 118 83 102 175 209 218 229 227 258 296 265 257 188 252 170 345 263 209 137 112 138 103 252 172 191 210 192 157 138 174 207 251 260 345 335 354 1 354 351 359 2 353 358 359 359 359 355 358
229 177 158 131 123 91 57 68 140 184 233 226 234 220 200 196 242 15 294 232 315 267 210 216 103 268 210 173 257 222 177 161 135 148 178 207 229 273 61 9 64 46 35 22 14 359 356 9 14 2 349 352 358 359
165 153 145 141 114 103 122 157 219 222 225 219 224 243 222 252 228 186 255 268 263 233 283 120 207 199 223 207 164 165 157 152 158 177 209 226 161 73 101 89 73 55 47 31 22 13 359 359 355 352 352 351 7 2
157 148 138 125 89 104 126 128 204 232 232 227 212 192 190 212 186 193 262 277 259 246 32 206 212 218 186 194 163 153 149 139 122 108 74 18 97 112 107 102 88 68 51 28 22 12 4 5 355 5 6 5 360 2
106 122 105 72 87 120 164 144 185 224 228 214 206 172 218 189 185 188 272 219 167 201 191 230 183 65 106 102 117 127 140 144 162 153 151 120 65 103 97 75 73 55 56 30 25 360 19 15 340 353 10 17 2 358
96 87 89 20 107 186 237 184 179 213 182 266 177 175 216 198 164 182 222 199 232 208 174 151 155 115 98 94 84 92 120 106 99 92 93 115 114 97 83 86 74 58 45 27 29 22 5 355 6 18 18 6 357 359
94 68 89 139 157 174 213 100 201 194 228 211 143 186 223 190 201 184 227 213 241 217 169 124 123 118 113 94 89 74 81 111 106 104 103 91 88 86 85 68 72 78 56 10 14 35 22 7 25 32 12 10 12 6
97 97 152 164 178 188 197 187 210 234 192 221 185 230 185 201 142 114 231 238 242 121 106 134 130 104 67 72 85 113 64 99 101 82 112 114 100 66 76 78 59 54 71 27 27 21 21 22 24 30 22 16 11 9
117 164 156 174 197 176 203 165 177 219 215 212 195 179 220 98 123 215 217 223 155 137 132 121 105 105 117 106 94 102 26 120 119 117 48 115 116 93 64 55 49 28 13 49 23 25 15 15 24 28 20 17 9 3
151 186 184 186 176 198 186 169 191 187 201 170 192 138 247 124 160 218 227 195 178 160 164 159 138 111 101 129 133 129 156 144 108 102 105 136 127 130 134 112 77 12 10 62 72 57 42 26 27 28 15 11 8 3
169 181 197 234 188 181 198 174 146 142 199 188 137 146 160 171 231 262 298 203 170 174 149 143 141 136 143 128 89 87 101 78 100 125 119 108 102 124 135 137 122 155 49 70 66 68 66 44 35 28 13 7 5 1
233 182 165 180 169 110 183 158 186 193 162 148 134 165 172 160 194 288 310 319 132 104 87 76 89 106 104 104 115 113 97 99 95 97 87 60 40 49 77 82 85 86 74 70 70 62 57 49 39 37 25 13 356 353
218 157 121 154 164 159 213 226 195 155 98 136 132 120 115 47 347 341 357 73 112 108 105 104 89 95 86 75 62 55 85 131 128 117 113 113 85 13 11 81 92 85 81 81 67 69 64 54 44 35 30 15 351 339
173 142 114 127 184 191 197 205 112 73 54 89 105 85 56 27 343 343 43 63 107 113 120 120 122 114 109 105 94 59 24 22 135 132 145 150 154 137 97 91 86 77 75 77 72 54 42 44 32 29 29 18 12 3
142 142 117 85 100 353 28 67 59 50 49 51 52 84 112 137 24 36 29 6 115 116 116 114 111 118 123 125 123 111 78 15 75 82 86 93 92 89 91 90 88 82 76 73 64 55 51 44 34 25 25 22 15 11
115 117 118 117 99 350 38 45 52 56 43 45 49 34 35 61 72 9 1 351 102 103 106 120 119 94 80 84 75 80 92 104 86 87 89 90 84 83 93 88 88 86 82 75 65 60 55 54 45 36 25 19 14 9
69 82 92 106 95 81 62 82 63 73 51 61 62 56 49 69 92 329 341 13 100 124 113 101 99 100 100 97 102 97 88 89 86 84 81 78 81 86 84 82 89 89 85 77 67 67 65 64 55 42 30 21 11 6